Location: Maiden
(35.5760°N, 81.2120°W)
Time: 02:03:21
(UTC-04:00)

Vanguard 2 - Pass Details

Date: 10 August 2020
Orbit: 553 x 2937 km, 32.9° (Epoch: 20 September)

Event Time Altitude Azimuth Distance (km) Brightness Sun altitude
Rises 22:01:17 0° 248° (WSW) 6,786 12.8 -19.2°
Reaches altitude 10° 22:05:54 10° 246° (WSW) 5,738 12.3 -20.0°
Maximum altitude 22:23:09 72° 167° (SSE) 2,500 9.8 -22.7°
Enters shadow 22:32:28 21° 88° (E) 3,495 10.4 -24.1°
Drops below altitude 10° 22:34:50 10° 86° (E) 4,064 - -24.5°
Sets 22:37:31 0° 84° (E) 4,782 - -24.9°
